Weather History for Jacksonville, TX

Change the Weather History Date:

Tuesday, March 19, 2013

  Actual Average (KTYR) Record (KTYR)
Temperature  
Mean Temperature 57 °F 58 °F  
Max Temperature 69 °F 68 °F 87 °F (1982)
Min Temperature 45 °F 48 °F 26 °F (1965)
Degree Days  
Heating Degree Days 8 8  
Month to date heating degree days 187  
Since 1 July heating degree days 2079  
Cooling Degree Days 0 1  
Month to date cooling degree days 7  
Year to date cooling degree days 19  
Growing Degree Days 7 (Base 50)    
Moisture  
Dew Point 42 °F    
Average Humidity 58    
Maximum Humidity 97    
Minimum Humidity 34    
Precipitation  
Precipitation 0.05 in 0.13 in 1.44 in (2002)
Month to date precipitation 2.61  
Year to date precipitation 9.48  
Snow  
Snow 0.00 in - - ()
Month to date snowfall  
Since 1 July snowfall  
Snow Depth -    
Sea Level Pressure  
Sea Level Pressure 30.03 in    
Wind  
Wind Speed 8 mph (ENE)    
Max Wind Speed 13 mph    
Max Gust Speed 17 mph    
Visibility 10 miles    
Events Rain , Thunderstorm    
T = Trace of Precipitation, MM = Missing Value Source: NWS Daily Summary

Daily Weather History Graph

Daily Weather History Graph

Search for Another Location

Airport:

Trip Planner

Search our weather history database for the weather conditions in past years. The results will help you decide how hot, cold, wet, or windy it might be!

Date:

Astronomy

Mar. 19, 2013 Rise Set
Actual Time 7:25 AM CDT 7:31 PM CDT
Civil Twilight 7:01 AM CDT 7:56 PM CDT
Nautical Twilight 6:32 AM CDT 8:24 PM CDT
Astronomical Twilight 6:04 AM CDT 8:53 PM CDT
Moon 12:36 PM CDT (3/19) 2:00 AM CDT (3/19)
Length of Visible Light 12h 55m
Length of Day
12h 06m
Waxing Crescent, 50% of the Moon is Illuminated
Mar 19
Waxing Crescent
Mar 19
First Quarter
Mar 27
Full
Apr 2
Last Quarter
Apr 10
New

Hourly Weather History & Observations

Time (CDT) Temp. Windchill Dew Point Humidity Pressure Visibility Wind Dir Wind Speed Gust Speed Precip Events Conditions
12:15 AM 55.9 °F - 41.2 °F 58% 30.01 in 10.0 mi NNE 10.4 mph - N/A   Clear
12:35 AM 55.4 °F - 40.5 °F 57% 30.01 in 10.0 mi NNE 9.2 mph - N/A   Clear
12:55 AM 54.5 °F - 40.1 °F 58% 30.01 in 10.0 mi NNE 9.2 mph - N/A   Clear
1:15 AM 54.0 °F - 39.7 °F 59% 30.01 in 10.0 mi NE 10.4 mph - N/A   Clear
1:35 AM 53.4 °F - 40.1 °F 61% 30.02 in 10.0 mi NE 9.2 mph - N/A   Clear
1:55 AM 52.9 °F - 40.3 °F 62% 30.02 in 10.0 mi NE 8.1 mph - N/A   Clear
2:15 AM 52.2 °F - 40.6 °F 65% 30.02 in 10.0 mi NE 8.1 mph - N/A   Clear
2:35 AM 51.4 °F - 41.0 °F 68% 30.01 in 10.0 mi NE 9.2 mph - N/A   Clear
2:55 AM 50.5 °F - 41.0 °F 70% 30.00 in 10.0 mi ENE 9.2 mph - N/A   Clear
3:15 AM 51.1 °F - 41.2 °F 69% 30.00 in 10.0 mi ENE 9.2 mph - N/A   Clear
3:35 AM 50.5 °F - 41.5 °F 71% 30.00 in 10.0 mi ENE 8.1 mph - N/A   Clear
3:55 AM 49.6 °F - 41.9 °F 75% 30.00 in 10.0 mi ENE 6.9 mph - N/A   Clear
4:15 AM 49.5 °F - 42.3 °F 76% 29.99 in 10.0 mi ENE 6.9 mph - N/A   Clear
4:35 AM 49.3 °F - 42.8 °F 78% 29.98 in 10.0 mi ENE 8.1 mph - N/A   Clear
4:55 AM 49.1 °F - 43.3 °F 81% 29.97 in 10.0 mi East 8.1 mph - N/A   Clear
5:15 AM 48.6 °F - 43.9 °F 84% 29.96 in 10.0 mi East 8.1 mph - N/A   Clear
5:35 AM 49.1 °F - 45.1 °F 86% 29.97 in 10.0 mi East 8.1 mph - N/A   Clear
5:55 AM 49.1 °F - 45.7 °F 88% 29.98 in 10.0 mi East 4.6 mph - N/A   Clear
6:15 AM 48.6 °F - 45.9 °F 90% 29.99 in 10.0 mi East 5.8 mph - N/A   Clear
6:35 AM 48.0 °F - 45.7 °F 92% 30.01 in 10.0 mi ENE 3.5 mph - N/A   Clear
6:55 AM 46.4 °F 45.2 °F 44.8 °F 94% 30.02 in 10.0 mi NE 3.5 mph - N/A   Clear
7:15 AM 45.7 °F 43.4 °F 44.6 °F 96% 30.02 in 10.0 mi ENE 4.6 mph - N/A   Clear
7:35 AM 46.4 °F 42.9 °F 45.5 °F 97% 30.02 in 10.0 mi ENE 6.9 mph - N/A   Clear
7:55 AM 46.9 °F - 45.7 °F 95% 30.03 in 10.0 mi ENE 6.9 mph - N/A   Clear
8:15 AM 47.5 °F - 45.9 °F 94% 30.03 in 10.0 mi ENE 8.1 mph - N/A   Clear
8:35 AM 49.1 °F - 46.0 °F 89% 30.04 in 10.0 mi ENE 6.9 mph - N/A   Clear
8:55 AM 50.0 °F - 46.2 °F 87% 30.06 in 10.0 mi East 8.1 mph - N/A   Clear
9:15 AM 51.8 °F - 46.4 °F 82% 30.08 in 10.0 mi East 10.4 mph - N/A   Clear
9:35 AM 52.3 °F - 44.8 °F 75% 30.08 in 10.0 mi East 10.4 mph 17.3 mph N/A   Clear
9:55 AM 54.0 °F - 44.1 °F 69% 30.09 in 10.0 mi ENE 10.4 mph 16.1 mph N/A   Clear
10:15 AM 55.0 °F - 43.3 °F 65% 30.09 in 10.0 mi ENE 11.5 mph 16.1 mph N/A   Clear
10:35 AM 56.3 °F - 41.4 °F 57% 30.10 in 10.0 mi East 9.2 mph - N/A   Clear
10:55 AM 57.4 °F - 40.3 °F 53% 30.09 in 10.0 mi ENE 8.1 mph - N/A   Clear
11:15 AM 58.5 °F - 40.1 °F 51% 30.09 in 10.0 mi ENE 10.4 mph - N/A   Clear
11:35 AM 59.2 °F - 39.2 °F 48% 30.08 in 10.0 mi East 9.2 mph 16.1 mph N/A   Clear
11:55 AM 60.6 °F - 39.4 °F 45% 30.08 in 10.0 mi East 8.1 mph 17.3 mph N/A   Clear
12:15 PM 61.9 °F - 37.8 °F 41% 30.07 in 10.0 mi ESE 5.8 mph 16.1 mph N/A   Clear
12:35 PM 63.5 °F - 38.5 °F 40% 30.06 in 10.0 mi East 10.4 mph - N/A   Clear
12:55 PM 64.4 °F - 37.9 °F 38% 30.05 in 10.0 mi East 10.4 mph - N/A   Clear
1:15 PM 65.1 °F - 38.1 °F 37% 30.04 in 10.0 mi East 11.5 mph 17.3 mph N/A   Clear
1:35 PM 66.7 °F - 38.3 °F 35% 30.03 in 10.0 mi East 8.1 mph - N/A   Clear
1:55 PM 67.6 °F - 38.7 °F 35% 30.02 in 10.0 mi East 6.9 mph - N/A   Mostly Cloudy
2:15 PM 67.1 °F - 39.2 °F 36% 30.02 in 10.0 mi East 5.8 mph - N/A   Mostly Cloudy
2:35 PM 68.9 °F - 40.1 °F 35% 30.02 in 10.0 mi ENE 4.6 mph - N/A   Mostly Cloudy
2:55 PM 69.1 °F - 40.3 °F 35% 30.01 in 10.0 mi NE 8.1 mph - N/A   Scattered Clouds
3:15 PM 68.9 °F - 41.5 °F 37% 30.00 in 10.0 mi SE 5.8 mph - N/A   Scattered Clouds
3:35 PM 69.3 °F - 41.2 °F 36% 29.99 in 10.0 mi ENE 6.9 mph - N/A   Scattered Clouds
3:55 PM 68.5 °F - 41.4 °F 37% 29.98 in 10.0 mi NE 5.8 mph - N/A   Scattered Clouds
4:15 PM 69.8 °F - 40.5 °F 34% 29.99 in 10.0 mi NE 8.1 mph - N/A   Clear
4:35 PM 69.6 °F - 40.5 °F 35% 29.99 in 10.0 mi ENE 8.1 mph - N/A   Clear
4:55 PM 69.6 °F - 41.7 °F 36% 29.98 in 10.0 mi ENE 9.2 mph - N/A   Clear
5:15 PM 68.7 °F - 41.9 °F 38% 29.98 in 10.0 mi ENE 6.9 mph - N/A   Clear
5:35 PM 68.0 °F - 41.9 °F 39% 29.99 in 10.0 mi NE 8.1 mph - N/A   Clear
5:55 PM 67.5 °F - 41.0 °F 38% 29.99 in 10.0 mi NNE 8.1 mph - N/A   Clear
6:15 PM 67.1 °F - 41.0 °F 39% 29.99 in 10.0 mi NNE 5.8 mph - N/A   Clear
6:35 PM 66.4 °F - 41.4 °F 40% 29.99 in 10.0 mi NE 8.1 mph - N/A   Clear
6:55 PM 65.5 °F - 41.2 °F 41% 29.99 in 10.0 mi NE 6.9 mph - N/A   Clear
7:15 PM 64.6 °F - 41.4 °F 43% 30.00 in 10.0 mi NE 5.8 mph - N/A   Clear
7:35 PM 64.0 °F - 41.0 °F 43% 30.01 in 10.0 mi NE 5.8 mph - N/A   Clear
7:55 PM 63.1 °F - 41.5 °F 45% 30.00 in 10.0 mi NE 4.6 mph - N/A   Clear
8:15 PM 63.0 °F - 40.5 °F 44% 30.01 in 10.0 mi NE 8.1 mph - N/A   Clear
8:35 PM 62.6 °F - 39.9 °F 43% 30.03 in 10.0 mi NNE 8.1 mph - N/A   Scattered Clouds
8:55 PM 62.6 °F - 38.3 °F 41% 30.04 in 10.0 mi NE 5.8 mph - N/A   Mostly Cloudy
9:15 PM 61.7 °F - 38.5 °F 42% 30.03 in 10.0 mi ENE 6.9 mph - N/A   Mostly Cloudy
9:35 PM 62.1 °F - 36.3 °F 38% 30.02 in 10.0 mi ENE 9.2 mph - N/A   Overcast
9:55 PM 61.9 °F - 35.6 °F 38% 30.03 in 10.0 mi ENE 9.2 mph - N/A   Overcast
10:15 PM 60.8 °F - 37.8 °F 42% 30.04 in 10.0 mi NE 6.9 mph 16.1 mph N/A Rain Light Rain
10:35 PM 59.2 °F - 39.9 °F 49% 30.05 in 10.0 mi ENE 6.9 mph - N/A Rain , Thunderstorm Light Thunderstorms and Rain
10:55 PM 58.1 °F - 40.6 °F 52% 30.06 in 10.0 mi NNE 6.9 mph - N/A Rain , Thunderstorm Light Thunderstorms and Rain
11:15 PM 55.8 °F - 44.1 °F 65% 30.17 in 10.0 mi West 12.7 mph - 0.02 in Rain , Thunderstorm Thunderstorms and Rain
11:35 PM 51.8 °F - 47.3 °F 85% 30.14 in 5.0 mi NNE 4.6 mph - 0.05 in Rain , Thunderstorm Thunderstorms and Rain
11:55 PM 51.3 °F - 46.8 °F 85% 30.12 in 10.0 mi NE 10.4 mph - 0.05 in Rain Light Rain